This is the latest recevied weather packets stored in our database for station/object KC1TWD. If no packets are shown the sender has not sent any weather packets the latest 10 day(s).
| Time | Temp. | Humidity | Pressure | Rain* | Wind** | Luminosity | Snow |
|---|---|---|---|---|---|---|---|
| 1777445379 | 7.78° C | 75% | 1019.7 hPa | 0 mm | - | - | - |
| 1777444772 | 7.78° C | 74% | 1019.5 hPa | 0 mm | - | - | - |
| 1777444467 | 7.78° C | 74% | 1019.6 hPa | 0 mm | - | - | - |
| 1777444166 | 7.78° C | 73% | 1019.6 hPa | 0 mm | - | - | - |
| 1777443861 | 7.78° C | 73% | 1019.8 hPa | 0 mm | - | - | - |
| 1777443557 | 7.78° C | 72% | 1019.8 hPa | 0 mm | - | - | - |
| 1777443253 | 7.78° C | 72% | 1019.8 hPa | 0 mm | - | - | - |
| 1777442950 | 7.78° C | 72% | 1019.8 hPa | 0 mm | - | - | - |
| 1777442647 | 7.78° C | 70% | 1019.8 hPa | 0 mm | - | - | - |
| 1777442342 | 7.78° C | 70% | 1019.8 hPa | 0 mm | - | - | - |
| 1777442040 | 7.78° C | 69% | 1019.8 hPa | 0 mm | - | - | - |
| 1777441734 | 7.78° C | 67% | 1019.8 hPa | 0 mm | - | - | - |
| 1777441429 | 7.78° C | 67% | 1019.6 hPa | 0 mm | - | - | - |
| 1777441124 | 7.78° C | 66% | 1019.7 hPa | 0 mm | - | - | - |
| 1777440821 | 7.78° C | 66% | 1019.7 hPa | 0 mm | - | - | - |
| 1777440517 | 7.78° C | 69% | 1019.5 hPa | 0 mm | - | - | - |
| 1777440213 | 7.78° C | 64% | 1019.6 hPa | 0 mm | - | - | - |
| 1777439909 | 7.78° C | 64% | 1019.7 hPa | 0 mm | - | - | - |
| 1777439606 | 7.78° C | 64% | 1020.1 hPa | 0 mm | - | - | - |
| 1777439301 | 7.78° C | 64% | 1020 hPa | 0 mm | - | - | - |
| 1777438996 | 7.22° C | 63% | 1019.8 hPa | 0 mm | - | - | - |
| 1777438695 | 7.22° C | 62% | 1019.8 hPa | 0 mm | - | - | - |
| 1777438390 | 7.22° C | 63% | 1019.8 hPa | 0 mm | - | - | - |
| 1777438086 | 7.22° C | 62% | 1019.9 hPa | 0 mm | - | - | - |
| 1777437783 | 7.22° C | 62% | 1019.8 hPa | 0 mm | - | - | - |
* Rain latest hour (hover to see other rain measurements)
** Current wind speed in m/s (hover to see current wind gust speed)